SBI5304 UOOO-UNNT

Flight info

Callsign SBI5304
Flight time 2h 16m
Altitude 37000
Route K0852F370 OLURI G490 THN G489 BATRA/K0848F360 G489 CE R116 TOKMO A300 NN G829 REGMI
Aircraft B738/M-VGDW/C

Departure

Time 2026-05-01 11:42
Airport Alykel International Airport (UOOO)

Arrival

Time 2026-05-01 13:59
Airport Novosibirsk Tolmachevo Airport (UNNT)
Time Latitude Longitude Altitude Speed Heading
2026-05-01 11:13 69.31853 87.33464 546 ft 0 kts 302°
2026-05-01 11:35 69.31851 87.33473 544 ft 2 kts 302°
2026-05-01 11:36 69.31841 87.33510 546 ft 2 kts 321°
2026-05-01 11:36 69.31826 87.33525 543 ft 2 kts 18°
2026-05-01 11:36 69.31816 87.33510 543 ft 1 kts 32°
2026-05-01 11:36 69.31814 87.33508 543 ft 0 kts 32°
2026-05-01 11:38 69.31815 87.33510 543 ft 1 kts 32°
2026-05-01 11:38 69.31831 87.33539 545 ft 5 kts 32°
2026-05-01 11:38 69.31876 87.33624 547 ft 10 kts 35°
2026-05-01 11:39 69.31947 87.33778 542 ft 15 kts 39°
2026-05-01 11:39 69.32028 87.33984 544 ft 16 kts 40°
2026-05-01 11:39 69.32141 87.34025 551 ft 18 kts 344°
2026-05-01 11:39 69.32260 87.34149 550 ft 20 kts 33°
2026-05-01 11:40 69.32371 87.34343 550 ft 18 kts 32°
2026-05-01 11:40 69.32449 87.34520 551 ft 13 kts 71°
2026-05-01 11:40 69.32457 87.34768 549 ft 13 kts 101°
2026-05-01 11:40 69.32437 87.35007 549 ft 12 kts 102°
2026-05-01 11:41 69.32421 87.35242 557 ft 12 kts 100°
2026-05-01 11:41 69.32374 87.35419 555 ft 13 kts 169°
2026-05-01 11:41 69.32252 87.35253 547 ft 29 kts 212°
2026-05-01 11:41 69.31871 87.34569 544 ft 109 kts 212°
2026-05-01 11:42 69.31007 87.33017 665 ft 176 kts 212°
2026-05-01 11:42 69.29929 87.31212 1787 ft 185 kts 209°
2026-05-01 11:42 69.28679 87.30220 2752 ft 201 kts 185°
2026-05-01 11:42 69.27181 87.30457 3217 ft 225 kts 178°
2026-05-01 11:43 69.25583 87.30846 3736 ft 234 kts 178°
2026-05-01 11:43 69.23945 87.31245 4403 ft 239 kts 178°
2026-05-01 11:43 69.22258 87.31647 4973 ft 252 kts 178°
2026-05-01 11:44 69.18622 87.32492 6571 ft 266 kts 178°
2026-05-01 11:44 69.16765 87.32918 7456 ft 269 kts 178°
2026-05-01 11:44 69.14913 87.33338 8323 ft 272 kts 178°
2026-05-01 11:44 69.12989 87.33770 9217 ft 276 kts 178°
2026-05-01 11:45 69.11093 87.34192 10067 ft 279 kts 178°
2026-05-01 11:45 69.09109 87.34629 10556 ft 296 kts 178°
2026-05-01 11:45 69.06965 87.35096 10758 ft 321 kts 178°
2026-05-01 11:45 69.04660 87.35599 11083 ft 340 kts 178°
2026-05-01 11:46 69.02276 87.36126 11769 ft 346 kts 177°
2026-05-01 11:46 68.99868 87.36659 12588 ft 349 kts 178°
2026-05-01 11:46 68.97437 87.37195 13399 ft 352 kts 178°
2026-05-01 11:46 68.94979 87.37733 14161 ft 356 kts 178°
2026-05-01 11:47 68.92497 87.38273 14853 ft 359 kts 178°
2026-05-01 11:47 68.89986 87.38818 15548 ft 363 kts 178°
2026-05-01 11:47 68.87457 87.39363 16240 ft 367 kts 178°
2026-05-01 11:47 68.84897 87.39900 16921 ft 371 kts 178°
2026-05-01 11:48 68.82314 87.40431 17587 ft 374 kts 178°
2026-05-01 11:48 68.79704 87.40964 18265 ft 378 kts 178°
2026-05-01 11:48 68.77066 87.41502 18829 ft 382 kts 178°
2026-05-01 11:48 68.74403 87.42045 19404 ft 385 kts 178°
2026-05-01 11:49 68.71751 87.42586 19989 ft 388 kts 178°
2026-05-01 11:49 68.69044 87.43138 20557 ft 392 kts 178°
2026-05-01 11:49 68.66316 87.43693 21119 ft 395 kts 178°
2026-05-01 11:49 68.63563 87.44252 21671 ft 398 kts 178°
2026-05-01 11:50 68.60791 87.44813 22206 ft 401 kts 178°
2026-05-01 11:50 68.57992 87.45378 22729 ft 405 kts 178°
2026-05-01 11:50 68.55169 87.45947 23244 ft 408 kts 178°
2026-05-01 11:50 68.52322 87.46520 23721 ft 411 kts 178°
2026-05-01 11:51 68.49455 87.47095 24116 ft 415 kts 178°
2026-05-01 11:51 68.46557 87.47674 24484 ft 419 kts 178°
2026-05-01 11:51 68.43640 87.48256 24855 ft 422 kts 178°
2026-05-01 11:51 68.40696 87.48842 25224 ft 426 kts 178°
2026-05-01 11:52 68.37728 87.49430 25586 ft 429 kts 178°
2026-05-01 11:52 68.34737 87.50022 25940 ft 432 kts 179°
2026-05-01 11:52 68.31722 87.50617 26281 ft 436 kts 179°
2026-05-01 11:52 68.28682 87.51215 26616 ft 439 kts 179°
2026-05-01 11:53 68.25665 87.51807 26939 ft 442 kts 179°
2026-05-01 11:53 68.22583 87.52411 27256 ft 445 kts 179°
2026-05-01 11:53 68.19477 87.53017 27568 ft 448 kts 179°
2026-05-01 11:53 68.16356 87.53626 27793 ft 453 kts 180°
2026-05-01 11:54 68.13190 87.54238 28024 ft 458 kts 180°
2026-05-01 11:54 68.10004 87.54854 28350 ft 460 kts 180°
2026-05-01 11:54 68.06808 87.55472 28675 ft 462 kts 180°
2026-05-01 11:54 68.03592 87.56093 28969 ft 465 kts 180°
2026-05-01 11:55 68.00357 87.56714 29240 ft 467 kts 180°
2026-05-01 11:55 67.98202 87.57127 29418 ft 469 kts 180°
2026-05-01 11:55 67.94935 87.57752 29699 ft 472 kts 180°
2026-05-01 11:55 67.91650 87.58379 30019 ft 473 kts 180°
2026-05-01 11:56 67.88370 87.59006 30373 ft 472 kts 180°
2026-05-01 11:56 67.85094 87.59631 30679 ft 471 kts 181°
2026-05-01 11:56 67.81819 87.60252 30912 ft 473 kts 181°
2026-05-01 11:56 67.78525 87.60871 31126 ft 475 kts 181°
2026-05-01 11:57 67.75230 87.61491 31431 ft 475 kts 181°
2026-05-01 11:57 67.71932 87.62111 31788 ft 473 kts 181°
2026-05-01 11:57 67.68646 87.62726 32115 ft 472 kts 181°
2026-05-01 11:57 67.65365 87.63338 32399 ft 473 kts 181°
2026-05-01 11:58 67.62081 87.63947 32668 ft 473 kts 181°
2026-05-01 11:58 67.58799 87.64555 32966 ft 473 kts 181°
2026-05-01 11:58 67.52239 87.65767 33523 ft 472 kts 181°
2026-05-01 11:59 67.48998 87.66363 33732 ft 474 kts 181°
2026-05-01 11:59 67.45663 87.66972 33958 ft 475 kts 181°
2026-05-01 11:59 67.42413 87.67566 34238 ft 474 kts 181°
2026-05-01 12:00 67.35865 87.68762 34698 ft 471 kts 181°
2026-05-01 12:00 67.32590 87.69355 34837 ft 472 kts 181°
2026-05-01 12:00 67.26024 87.70539 35212 ft 472 kts 181°
2026-05-01 12:01 67.22752 87.71129 35417 ft 471 kts 181°
2026-05-01 12:01 67.19483 87.71716 35572 ft 471 kts 181°
2026-05-01 12:01 67.16209 87.72301 35724 ft 471 kts 181°
2026-05-01 12:01 67.12935 87.72884 35886 ft 472 kts 181°
2026-05-01 12:02 67.09661 87.73467 36075 ft 471 kts 181°
2026-05-01 12:02 67.06388 87.74049 36271 ft 470 kts 181°
2026-05-01 12:02 67.03123 87.74617 36442 ft 470 kts 181°
2026-05-01 12:02 66.99861 87.75155 36596 ft 470 kts 181°
2026-05-01 12:03 66.96597 87.75680 36765 ft 470 kts 181°
2026-05-01 12:03 66.93334 87.76200 36947 ft 469 kts 181°
2026-05-01 12:03 66.90109 87.76713 37096 ft 470 kts 181°
2026-05-01 12:04 66.83543 87.77756 37098 ft 473 kts 181°
2026-05-01 12:04 66.76974 87.78809 37102 ft 473 kts 181°
2026-05-01 12:05 66.70410 87.79858 37113 ft 473 kts 181°
2026-05-01 12:05 66.60560 87.81417 37114 ft 472 kts 181°
2026-05-01 12:06 66.54048 87.82439 37086 ft 472 kts 182°
2026-05-01 12:06 66.47463 87.83467 37113 ft 471 kts 182°
2026-05-01 12:07 66.40914 87.84480 37118 ft 478 kts 182°
2026-05-01 12:07 66.34235 87.85512 37123 ft 483 kts 182°
2026-05-01 12:08 66.27500 87.86553 37122 ft 486 kts 182°
2026-05-01 12:08 66.20721 87.87583 37102 ft 487 kts 182°
2026-05-01 12:09 66.13943 87.88583 37112 ft 488 kts 182°
2026-05-01 12:09 66.07150 87.89580 37122 ft 488 kts 182°
2026-05-01 12:10 65.97020 87.91065 37125 ft 488 kts 182°
2026-05-01 12:11 65.86859 87.92543 37122 ft 487 kts 183°
2026-05-01 12:11 65.80095 87.93519 37128 ft 487 kts 183°
2026-05-01 12:12 65.73348 87.93942 37129 ft 484 kts 186°
2026-05-01 12:12 65.66612 87.93902 37130 ft 483 kts 186°
2026-05-01 12:13 65.59876 87.93941 37091 ft 484 kts 186°
2026-05-01 12:13 65.53140 87.94071 37132 ft 484 kts 186°
2026-05-01 12:14 65.46449 87.94215 37141 ft 484 kts 186°
2026-05-01 12:14 65.39700 87.94354 37138 ft 485 kts 186°
2026-05-01 12:15 65.32954 87.94489 37143 ft 485 kts 186°
2026-05-01 12:15 65.26199 87.94628 37142 ft 485 kts 186°
2026-05-01 12:16 65.19435 87.94767 37139 ft 486 kts 186°
2026-05-01 12:16 65.12672 87.94906 37140 ft 486 kts 186°
2026-05-01 12:17 65.05955 87.95042 37138 ft 486 kts 186°
2026-05-01 12:17 64.99199 87.95198 37139 ft 486 kts 186°
2026-05-01 12:18 64.92442 87.95391 37138 ft 485 kts 186°
2026-05-01 12:18 64.85696 87.95584 37135 ft 485 kts 186°
2026-05-01 12:19 64.78948 87.95771 37149 ft 485 kts 186°
2026-05-01 12:19 64.72201 87.95954 37154 ft 485 kts 186°
2026-05-01 12:20 64.65457 87.96136 37102 ft 485 kts 187°
2026-05-01 12:20 64.58715 87.96319 37144 ft 484 kts 187°
2026-05-01 12:21 64.52017 87.96498 37151 ft 484 kts 187°
2026-05-01 12:21 64.45277 87.96677 37153 ft 484 kts 187°
2026-05-01 12:22 64.38544 87.96856 37151 ft 484 kts 187°
2026-05-01 12:22 64.31811 87.97033 37119 ft 483 kts 187°
2026-05-01 12:23 64.25093 87.97211 37145 ft 483 kts 187°
2026-05-01 12:23 64.18370 87.97387 37160 ft 483 kts 187°
2026-05-01 12:24 64.11648 87.97561 37158 ft 483 kts 187°
2026-05-01 12:24 64.04922 87.97735 37158 ft 483 kts 187°
2026-05-01 12:25 63.94843 87.97995 37146 ft 483 kts 187°
2026-05-01 12:26 63.88165 87.98164 37162 ft 483 kts 187°
2026-05-01 12:26 63.78081 87.98420 37158 ft 483 kts 187°
2026-05-01 12:27 63.68005 87.98677 37157 ft 482 kts 187°
2026-05-01 12:28 63.57972 87.98928 37162 ft 483 kts 187°
2026-05-01 12:29 63.47890 87.99179 37162 ft 483 kts 187°
2026-05-01 12:29 63.37795 87.99429 37160 ft 483 kts 187°
2026-05-01 12:30 63.27714 87.99677 37156 ft 481 kts 187°
2026-05-01 12:31 63.21099 87.99847 37156 ft 470 kts 188°
2026-05-01 12:31 63.14653 87.99555 37158 ft 458 kts 196°
2026-05-01 12:32 63.08389 87.97496 37129 ft 453 kts 198°
2026-05-01 12:32 62.99058 87.94294 37166 ft 453 kts 198°
2026-05-01 12:33 62.92797 87.92262 37165 ft 455 kts 197°
2026-05-01 12:33 62.86501 87.90262 37163 ft 458 kts 197°
2026-05-01 12:34 62.80172 87.88266 37121 ft 461 kts 197°
2026-05-01 12:34 62.73819 87.86271 37153 ft 462 kts 197°
2026-05-01 12:35 62.67478 87.84285 37159 ft 464 kts 197°
2026-05-01 12:35 62.61084 87.82291 37158 ft 465 kts 197°
2026-05-01 12:36 62.54675 87.80302 37157 ft 465 kts 197°
2026-05-01 12:36 62.48287 87.78334 37103 ft 460 kts 197°
2026-05-01 12:37 62.42006 87.76406 37152 ft 454 kts 197°
2026-05-01 12:37 62.35775 87.74485 37156 ft 455 kts 197°
2026-05-01 12:38 62.29506 87.72566 37159 ft 455 kts 197°
2026-05-01 12:38 62.23233 87.70659 37155 ft 456 kts 197°
2026-05-01 12:39 62.16940 87.68758 37157 ft 456 kts 197°
2026-05-01 12:39 62.10650 87.66865 37154 ft 457 kts 197°
2026-05-01 12:40 62.04374 87.64984 37152 ft 457 kts 197°
2026-05-01 12:40 61.98065 87.63101 37152 ft 458 kts 197°
2026-05-01 12:41 61.91747 87.61222 37159 ft 458 kts 197°
2026-05-01 12:41 61.85433 87.59355 37148 ft 457 kts 197°
2026-05-01 12:42 61.79126 87.57495 37147 ft 457 kts 197°
2026-05-01 12:42 61.72824 87.55644 37153 ft 457 kts 197°
2026-05-01 12:43 61.66552 87.53809 37146 ft 458 kts 197°
2026-05-01 12:43 61.60243 87.51972 37107 ft 458 kts 197°
2026-05-01 12:44 61.55011 87.50456 37139 ft 456 kts 197°
2026-05-01 12:45 61.42437 87.46828 37144 ft 456 kts 197°
2026-05-01 12:45 61.36158 87.45027 37146 ft 455 kts 197°
2026-05-01 12:46 61.29855 87.43223 36748 ft 458 kts 197°
2026-05-01 12:46 61.26709 87.42329 36494 ft 455 kts 197°
2026-05-01 12:46 61.23581 87.41447 36244 ft 452 kts 197°
2026-05-01 12:47 61.17334 87.39676 36161 ft 455 kts 197°
2026-05-01 12:47 61.11053 87.37896 36147 ft 456 kts 197°
2026-05-01 12:48 61.04817 87.36148 36143 ft 454 kts 197°
2026-05-01 12:48 60.98572 87.34404 36120 ft 452 kts 197°
2026-05-01 12:49 60.92346 87.32669 36140 ft 451 kts 197°
2026-05-01 12:49 60.86130 87.30941 36149 ft 450 kts 197°
2026-05-01 12:50 60.79911 87.29218 36143 ft 451 kts 197°
2026-05-01 12:50 60.73679 87.27499 36147 ft 452 kts 197°
2026-05-01 12:51 60.67440 87.25779 36137 ft 452 kts 197°
2026-05-01 12:52 60.58046 87.23219 36141 ft 455 kts 196°
2026-05-01 12:52 60.48649 87.20670 36136 ft 456 kts 196°
2026-05-01 12:53 60.39222 87.18127 36132 ft 456 kts 196°
2026-05-01 12:54 60.32930 87.16438 36131 ft 456 kts 196°
2026-05-01 12:54 60.23503 87.13919 36131 ft 455 kts 196°
2026-05-01 12:55 60.14097 87.11419 36089 ft 454 kts 196°
2026-05-01 12:56 60.07832 87.09763 36121 ft 453 kts 196°
2026-05-01 12:56 60.01582 87.08116 36123 ft 453 kts 196°
2026-05-01 12:57 59.95338 87.06476 36123 ft 452 kts 196°
2026-05-01 12:57 59.86011 87.04039 36125 ft 452 kts 196°
2026-05-01 12:58 59.79770 87.02416 36118 ft 452 kts 196°
2026-05-01 12:59 59.70400 86.99991 36122 ft 452 kts 195°
2026-05-01 12:59 59.61020 86.97576 36118 ft 453 kts 195°
2026-05-01 13:00 59.51661 86.95182 36113 ft 453 kts 195°
2026-05-01 13:01 59.42272 86.92793 36119 ft 454 kts 195°
2026-05-01 13:02 59.32846 86.90407 36109 ft 455 kts 195°
2026-05-01 13:07 58.64356 86.72947 36075 ft 443 kts 200°
2026-05-01 13:08 58.58637 86.69103 36084 ft 434 kts 209°
2026-05-01 13:08 58.53031 86.64729 36081 ft 435 kts 209°
2026-05-01 13:09 58.47388 86.60401 36080 ft 438 kts 209°
2026-05-01 13:09 58.41749 86.56147 36050 ft 439 kts 208°
2026-05-01 13:10 58.36057 86.51887 36062 ft 440 kts 208°
2026-05-01 13:10 58.30344 86.47625 36065 ft 441 kts 208°
2026-05-01 13:11 58.24625 86.43372 36064 ft 441 kts 208°
2026-05-01 13:11 58.18907 86.39134 36061 ft 441 kts 208°
2026-05-01 13:12 58.13180 86.34903 36037 ft 441 kts 208°
2026-05-01 13:12 58.07467 86.30692 36036 ft 440 kts 208°
2026-05-01 13:13 58.01769 86.26512 36048 ft 439 kts 208°
2026-05-01 13:13 57.96081 86.22357 36046 ft 438 kts 208°
2026-05-01 13:14 57.90413 86.18224 36048 ft 437 kts 208°
2026-05-01 13:14 57.84773 86.14127 36021 ft 437 kts 208°
2026-05-01 13:15 57.79107 86.10022 36032 ft 436 kts 208°
2026-05-01 13:15 57.73439 86.05924 36037 ft 437 kts 208°
2026-05-01 13:16 57.67762 86.01834 36036 ft 438 kts 208°
2026-05-01 13:16 57.62069 85.97746 36035 ft 438 kts 208°
2026-05-01 13:17 57.50677 85.89608 36026 ft 439 kts 208°
2026-05-01 13:18 57.42112 85.83525 36030 ft 439 kts 208°
2026-05-01 13:18 57.36405 85.79489 36023 ft 437 kts 207°
2026-05-01 13:19 57.30753 85.75511 36006 ft 432 kts 207°
2026-05-01 13:20 57.22354 85.69611 36029 ft 431 kts 207°
2026-05-01 13:20 57.16737 85.65680 36028 ft 432 kts 207°
2026-05-01 13:21 57.08288 85.59794 36028 ft 434 kts 207°
2026-05-01 13:21 57.02630 85.55872 35998 ft 435 kts 207°
2026-05-01 13:22 56.96960 85.51958 36019 ft 436 kts 207°
2026-05-01 13:22 56.91263 85.48035 36028 ft 438 kts 207°
2026-05-01 13:23 56.85540 85.44107 36028 ft 440 kts 207°
2026-05-01 13:23 56.79832 85.40201 36026 ft 442 kts 207°
2026-05-01 13:24 56.74067 85.36269 36011 ft 442 kts 206°
2026-05-01 13:25 56.65226 85.31168 36022 ft 449 kts 197°
2026-05-01 13:25 56.59092 85.28978 36016 ft 448 kts 197°
2026-05-01 13:26 56.52992 85.26704 36013 ft 447 kts 197°
2026-05-01 13:26 56.46913 85.24369 36024 ft 446 kts 198°
2026-05-01 13:27 56.41245 85.20734 36017 ft 425 kts 223°
2026-05-01 13:27 56.39159 85.17066 36024 ft 415 kts 237°
2026-05-01 13:27 56.36738 85.07888 36028 ft 403 kts 259°
2026-05-01 13:28 56.35236 84.94689 36016 ft 404 kts 261°
2026-05-01 13:29 56.32951 84.74732 36018 ft 408 kts 259°
2026-05-01 13:30 56.30529 84.54518 33855 ft 412 kts 259°
2026-05-01 13:31 56.29308 84.44460 32625 ft 406 kts 259°
2026-05-01 13:31 56.27509 84.29775 31149 ft 394 kts 259°
2026-05-01 13:32 56.26341 84.20302 30235 ft 387 kts 258°
2026-05-01 13:33 56.24600 84.06307 28774 ft 376 kts 258°
2026-05-01 13:33 56.22716 83.97643 27899 ft 370 kts 243°
2026-05-01 13:34 56.19680 83.90311 27093 ft 365 kts 232°
2026-05-01 13:34 56.16364 83.83437 26188 ft 362 kts 232°
2026-05-01 13:35 56.13029 83.76471 25300 ft 377 kts 232°
2026-05-01 13:35 56.11321 83.72891 24832 ft 377 kts 232°
2026-05-01 13:35 56.07925 83.65794 23917 ft 372 kts 231°
2026-05-01 13:36 56.06800 83.63469 23533 ft 373 kts 231°
2026-05-01 13:36 56.04531 83.58845 22816 ft 371 kts 231°
2026-05-01 13:36 56.01149 83.51997 21890 ft 364 kts 231°
2026-05-01 13:37 55.99479 83.48616 21443 ft 360 kts 231°
2026-05-01 13:37 55.97827 83.45273 20988 ft 357 kts 231°
2026-05-01 13:37 55.96187 83.41956 20557 ft 355 kts 231°
2026-05-01 13:37 55.94559 83.38665 20124 ft 352 kts 231°
2026-05-01 13:38 55.91332 83.32158 19278 ft 348 kts 231°
2026-05-01 13:38 55.89732 83.28936 18850 ft 346 kts 231°
2026-05-01 13:38 55.88151 83.25758 18443 ft 344 kts 231°
2026-05-01 13:39 55.86588 83.22619 17996 ft 342 kts 230°
2026-05-01 13:39 55.85013 83.19456 17516 ft 340 kts 230°
2026-05-01 13:39 55.83452 83.16330 17102 ft 337 kts 230°
2026-05-01 13:39 55.81899 83.13224 16674 ft 334 kts 230°
2026-05-01 13:40 55.80357 83.10147 16267 ft 332 kts 230°
2026-05-01 13:40 55.78814 83.07116 15852 ft 330 kts 226°
2026-05-01 13:40 55.77022 83.04563 15445 ft 330 kts 217°
2026-05-01 13:40 55.75115 83.02306 15022 ft 329 kts 215°
2026-05-01 13:41 55.73201 83.00090 14620 ft 327 kts 215°
2026-05-01 13:41 55.71301 82.97880 14213 ft 326 kts 215°
2026-05-01 13:41 55.69414 82.95667 13819 ft 324 kts 216°
2026-05-01 13:41 55.67540 82.93451 13374 ft 323 kts 216°
2026-05-01 13:42 55.65678 82.91241 12945 ft 322 kts 216°
2026-05-01 13:42 55.63823 82.89035 12531 ft 320 kts 216°
2026-05-01 13:42 55.61980 82.86840 12130 ft 318 kts 216°
2026-05-01 13:42 55.60154 82.84666 11729 ft 317 kts 215°
2026-05-01 13:43 55.58330 82.82497 11331 ft 316 kts 215°
2026-05-01 13:43 55.56509 82.80332 10929 ft 315 kts 215°
2026-05-01 13:43 55.54697 82.78181 10576 ft 312 kts 215°
2026-05-01 13:43 55.52925 82.76078 10453 ft 303 kts 215°
2026-05-01 13:44 55.51199 82.74033 10327 ft 294 kts 214°
2026-05-01 13:44 55.49543 82.72075 10190 ft 286 kts 214°
2026-05-01 13:44 55.47913 82.70150 10071 ft 278 kts 214°
2026-05-01 13:44 55.46323 82.68274 9905 ft 273 kts 214°
2026-05-01 13:45 55.44745 82.66414 9593 ft 273 kts 214°
2026-05-01 13:45 55.43171 82.64561 9291 ft 271 kts 213°
2026-05-01 13:45 55.41603 82.62717 8997 ft 271 kts 213°
2026-05-01 13:45 55.40040 82.60880 8689 ft 270 kts 213°
2026-05-01 13:46 55.38492 82.59061 8405 ft 265 kts 213°
2026-05-01 13:46 55.36978 82.57284 8123 ft 259 kts 212°
2026-05-01 13:46 55.35493 82.55542 7853 ft 254 kts 212°
2026-05-01 13:46 55.34036 82.53835 7583 ft 249 kts 212°
2026-05-01 13:47 55.32601 82.52155 7323 ft 245 kts 212°
2026-05-01 13:47 55.31192 82.50508 7051 ft 241 kts 211°
2026-05-01 13:47 55.29802 82.48884 6802 ft 240 kts 211°
2026-05-01 13:47 55.28422 82.47274 6557 ft 242 kts 211°
2026-05-01 13:48 55.26999 82.45614 6317 ft 250 kts 211°
2026-05-01 13:48 55.25530 82.43902 6015 ft 255 kts 211°
2026-05-01 13:48 55.24059 82.42189 5738 ft 252 kts 211°
2026-05-01 13:48 55.22612 82.40505 5451 ft 247 kts 211°
2026-05-01 13:49 55.21201 82.38864 5182 ft 242 kts 210°
2026-05-01 13:49 55.19787 82.37457 4969 ft 225 kts 194°
2026-05-01 13:49 55.18326 82.36929 4831 ft 206 kts 187°
2026-05-01 13:49 55.16966 82.36496 4677 ft 191 kts 187°
2026-05-01 13:50 55.15701 82.36085 4523 ft 178 kts 187°
2026-05-01 13:50 55.14519 82.35700 4398 ft 170 kts 187°
2026-05-01 13:50 55.13370 82.35326 4309 ft 168 kts 187°
2026-05-01 13:50 55.12223 82.34952 4198 ft 168 kts 187°
2026-05-01 13:51 55.11072 82.34575 4089 ft 168 kts 187°
2026-05-01 13:51 55.09924 82.34197 3974 ft 169 kts 187°
2026-05-01 13:51 55.08776 82.33818 3867 ft 164 kts 187°
2026-05-01 13:51 55.07682 82.33455 3730 ft 157 kts 187°
2026-05-01 13:52 55.06618 82.33104 3618 ft 155 kts 187°
2026-05-01 13:52 55.05562 82.32755 3527 ft 157 kts 187°
2026-05-01 13:52 55.04493 82.32400 3460 ft 154 kts 186°
2026-05-01 13:52 55.03474 82.32061 3338 ft 145 kts 186°
2026-05-01 13:53 55.02504 82.31740 3224 ft 139 kts 186°
2026-05-01 13:53 55.00598 82.31690 3049 ft 137 kts 160°
2026-05-01 13:53 54.99752 82.32455 2927 ft 138 kts 143°
2026-05-01 13:54 54.99124 82.33701 2837 ft 137 kts 124°
2026-05-01 13:54 54.98757 82.35242 2726 ft 143 kts 108°
2026-05-01 13:54 54.98736 82.37004 2642 ft 150 kts 85°
2026-05-01 13:54 54.98902 82.38790 2531 ft 149 kts 88°
2026-05-01 13:55 54.99050 82.40560 2414 ft 146 kts 86°
2026-05-01 13:55 54.99202 82.42303 2327 ft 146 kts 87°
2026-05-01 13:55 54.99358 82.44057 2217 ft 146 kts 87°
2026-05-01 13:55 54.99515 82.45834 2118 ft 151 kts 87°
2026-05-01 13:56 54.99674 82.47624 2008 ft 151 kts 86°
2026-05-01 13:56 54.99837 82.49429 1813 ft 149 kts 86°
2026-05-01 13:56 54.99994 82.51210 1627 ft 145 kts 86°
2026-05-01 13:56 55.00147 82.52917 1442 ft 145 kts 85°
2026-05-01 13:57 55.00309 82.54664 1243 ft 147 kts 84°
2026-05-01 13:57 55.00420 82.55855 1097 ft 148 kts 83°
2026-05-01 13:57 55.00633 82.58207 851 ft 149 kts 82°
2026-05-01 13:57 55.00787 82.60000 643 ft 150 kts 82°
2026-05-01 13:58 55.00947 82.61786 473 ft 149 kts 82°
2026-05-01 13:58 55.01102 82.63533 373 ft 139 kts 82°
2026-05-01 13:58 55.01235 82.64969 371 ft 99 kts 82°
2026-05-01 13:58 55.01320 82.65889 372 ft 55 kts 81°
2026-05-01 13:59 55.01353 82.66288 372 ft 12 kts 83°
2026-05-01 13:59 55.01362 82.66379 373 ft 17 kts 80°
2026-05-01 13:59 55.01332 82.66600 373 ft 22 kts 163°
2026-05-01 13:59 55.01217 82.66634 372 ft 0 kts 171°
2026-05-01 14:00 55.01215 82.66635 372 ft 2 kts 171°
2026-05-01 14:00 55.01169 82.66646 372 ft 12 kts 171°
2026-05-01 14:01 55.01071 82.66594 372 ft 19 kts 244°
2026-05-01 14:01 55.01017 82.66365 372 ft 17 kts 253°
2026-05-01 14:01 55.00952 82.66263 372 ft 10 kts 172°
2026-05-01 14:01 55.00935 82.66269 372 ft 0 kts 169°